Location: Kerberlivit
(48.2787°N, 4.5413°W)
Time: 21:48:13
(UTC+00:00)

Cosmos 1943 Rocket - Pass Details

Date: 18 February 2020
Orbit: 814 x 842 km, 71.0° (Epoch: 29 March)

Event Time Altitude Azimuth Distance (km) Brightness Sun altitude
Exits shadow 04:13:27 23° 358° (N) 1,664 3.8 -31.6°
Maximum altitude 04:16:20 41° 53° (NE) 1,177 3.3 -31.1°
Drops below altitude 10° 04:21:30 10° 123° (ESE) 2,401 5.0 -30.3°
Sets 04:24:03 0° 131° (SE) 3,330 5.7 -29.9°
